• In Netherlands
  • List of Countries
  • For 7 days
  • Water Temperature
  • Satellite Maps
  • Weather Map
  • Weather Widgets
  • user-avatar
    Login

    Hourly Weather Graz

    Today, 27 May, Saturday

    Time Temperature Precipitation Wind Pressure Humidity
    00:00 +12°C° 0 mm 1 mps 726 mmHg 93%
    01:00 +13°C° 0 mm 1 mps 726 mmHg 92%
    02:00 +12°C° 0 mm 1 mps 726 mmHg 92%
    03:00 +12°C° 0 mm 1 mps 726 mmHg 93%
    04:00 +12°C° 0 mm 1 mps 726 mmHg 93%
    05:00 +14°C° 0 mm 1 mps 727 mmHg 88%
    06:00 +16°C° 0 mm 1 mps 727 mmHg 82%
    07:00 +19°C° 0 mm 1 mps 728 mmHg 75%
    08:00 +21°C° 0 mm 1 mps 728 mmHg 67%
    09:00 +22°C° 0 mm 1 mps 728 mmHg 60%
    10:00 +24°C° 0 mm 1 mps 728 mmHg 52%
    11:00 +24°C° 0 mm 2 mps 728 mmHg 50%
    12:00 +25°C° 0 mm 2 mps 728 mmHg 49%
    13:00 +26°C° 0 mm 2 mps 728 mmHg 47%
    14:00 +25°C° 0 mm 2 mps 728 mmHg 49%
    15:00 +25°C° 0 mm 2 mps 728 mmHg 51%
    16:00 +25°C° 0 mm 2 mps 727 mmHg 54%
    17:00 +23°C° 0 mm 2 mps 727 mmHg 63%
    18:00 +20°C° 0 mm 2 mps 727 mmHg 73%
    19:00 +19°C° 0 mm 1 mps 727 mmHg 82%
    20:00 +18°C° 0 mm 1 mps 728 mmHg 85%
    21:00 +15°C° 0 mm 1 mps 728 mmHg 89%
    22:00 +14°C° 0 mm 1 mps 728 mmHg 92%
    23:00 +13°C° 0 mm 1 mps 729 mmHg 93%

    Tomorrow, 28 May, Sunday

    Time Temperature Precipitation Wind Pressure Humidity
    00:00 +12°C° 0 mm 1 mps 729 mmHg 94%
    01:00 +11°C° 0 mm 0 mps 729 mmHg 95%
    02:00 +11°C° 0 mm 0 mps 729 mmHg 95%
    03:00 +10°C° 0 mm 0 mps 729 mmHg 95%
    04:00 +10°C° 0 mm 0 mps 729 mmHg 95%
    05:00 +13°C° 0 mm 1 mps 729 mmHg 90%
    06:00 +15°C° 0 mm 1 mps 729 mmHg 84%
    07:00 +18°C° 0 mm 1 mps 730 mmHg 79%
    08:00 +20°C° 0 mm 1 mps 730 mmHg 73%
    09:00 +21°C° 0 mm 1 mps 730 mmHg 67%
    10:00 +22°C° 0 mm 1 mps 730 mmHg 61%
    11:00 +23°C° 0 mm 2 mps 730 mmHg 58%
    12:00 +24°C° 0 mm 2 mps 729 mmHg 55%
    13:00 +25°C° 0 mm 2 mps 729 mmHg 52%
    14:00 +25°C° 0 mm 2 mps 729 mmHg 53%
    15:00 +24°C° 0 mm 2 mps 729 mmHg 55%
    16:00 +24°C° 0 mm 2 mps 728 mmHg 56%
    17:00 +23°C° 0 mm 2 mps 728 mmHg 64%
    18:00 +20°C° 0 mm 2 mps 728 mmHg 73%
    19:00 +19°C° 0 mm 1 mps 728 mmHg 81%
    20:00 +16°C° 0 mm 1 mps 728 mmHg 85%
    21:00 +14°C° 0 mm 1 mps 728 mmHg 89%
    22:00 +13°C° 0 mm 1 mps 728 mmHg 94%
    23:00 +12°C° 0 mm 1 mps 728 mmHg 94%

    Day after tomorrow, 29 May, Monday

    Time Temperature Precipitation Wind Pressure Humidity
    00:00 +12°C° 0 mm 1 mps 727 mmHg 94%
    01:00 +12°C° 0 mm 1 mps 727 mmHg 94%
    02:00 +11°C° 0 mm 1 mps 727 mmHg 95%
    03:00 +11°C° 0 mm 1 mps 726 mmHg 95%
    04:00 +11°C° 0 mm 1 mps 726 mmHg 95%
    05:00 +14°C° 0 mm 1 mps 726 mmHg 89%
    06:00 +16°C° 0 mm 1 mps 726 mmHg 83%
    07:00 +20°C° 0 mm 1 mps 727 mmHg 77%
    08:00 +22°C° 0 mm 1 mps 727 mmHg 70%
    09:00 +24°C° 0 mm 1 mps 727 mmHg 62%
    10:00 +25°C° 0 mm 2 mps 726 mmHg 55%
    11:00 +26°C° 0 mm 2 mps 726 mmHg 52%
    12:00 +27°C° 0 mm 2 mps 726 mmHg 50%
    13:00 +28°C° 0 mm 2 mps 726 mmHg 48%
    14:00 +27°C° 0 mm 2 mps 725 mmHg 50%
    15:00 +27°C° 0 mm 2 mps 725 mmHg 52%
    16:00 +27°C° 0 mm 2 mps 725 mmHg 54%
    17:00 +25°C° 0.1 mm 2 mps 725 mmHg 64%
    18:00 +23°C° 0.1 mm 2 mps 724 mmHg 73%
    19:00 +21°C° 0.1 mm 1 mps 724 mmHg 83%
    20:00 +19°C° 0 mm 1 mps 724 mmHg 87%
    21:00 +16°C° 0 mm 1 mps 724 mmHg 90%
    22:00 +14°C° 0 mm 1 mps 724 mmHg 94%
    23:00 +14°C° 0 mm 1 mps 724 mmHg 94%

    30 May, Tuesday

    Time Temperature Precipitation Wind Pressure Humidity
    00:00 +14°C° 0 mm 1 mps 724 mmHg 94%
    01:00 +14°C° 0 mm 1 mps 723 mmHg 94%
    02:00 +13°C° 0 mm 1 mps 723 mmHg 94%
    03:00 +13°C° 0 mm 1 mps 723 mmHg 94%
    04:00 +13°C° 0 mm 1 mps 723 mmHg 94%
    05:00 +16°C° 0 mm 1 mps 723 mmHg 87%
    06:00 +18°C° 0 mm 0 mps 724 mmHg 80%
    07:00 +21°C° 0 mm 0 mps 724 mmHg 74%
    08:00 +22°C° 0 mm 0 mps 724 mmHg 66%
    09:00 +26°C° 0 mm 1 mps 725 mmHg 59%
    10:00 +28°C° 0 mm 1 mps 725 mmHg 51%
    11:00 +28°C° 0.2 mm 1 mps 725 mmHg 52%
    12:00 +29°C° 0.2 mm 1 mps 725 mmHg 54%
    13:00 +29°C° 0.2 mm 2 mps 725 mmHg 55%
    14:00 +28°C° 0.7 mm 1 mps 724 mmHg 58%
    15:00 +28°C° 0.7 mm 1 mps 724 mmHg 61%
    16:00 +28°C° 0.7 mm 1 mps 724 mmHg 64%
    17:00 +26°C° 0.3 mm 1 mps 724 mmHg 71%
    18:00 +25°C° 0.3 mm 1 mps 724 mmHg 78%
    19:00 +23°C° 0.3 mm 1 mps 724 mmHg 85%
    20:00 +22°C° 0.1 mm 1 mps 724 mmHg 88%
    21:00 +20°C° 0.1 mm 1 mps 724 mmHg 90%
    22:00 +19°C° 0.1 mm 1 mps 724 mmHg 93%
    23:00 +19°C° 0.8 mm 1 mps 724 mmHg 93%

    31 May, Wednesday

    Time Temperature Precipitation Wind Pressure Humidity
    00:00 +19°C° 0.8 mm 1 mps 724 mmHg 93%
    01:00 +19°C° 0.8 mm 1 mps 724 mmHg 93%
    02:00 +19°C° 0.1 mm 1 mps 724 mmHg 93%
    03:00 +19°C° 0.1 mm 1 mps 724 mmHg 93%
    04:00 +19°C° 0.1 mm 1 mps 724 mmHg 93%
    05:00 +20°C° 0.1 mm 1 mps 725 mmHg 90%
    06:00 +21°C° 0.1 mm 1 mps 725 mmHg 88%
    07:00 +22°C° 0.1 mm 1 mps 725 mmHg 85%
    08:00 +23°C° 0.7 mm 1 mps 725 mmHg 80%
    09:00 +25°C° 0.7 mm 1 mps 725 mmHg 74%
    10:00 +26°C° 0.7 mm 1 mps 726 mmHg 69%
    11:00 +26°C° 1.1 mm 1 mps 725 mmHg 69%
    12:00 +26°C° 1.1 mm 1 mps 725 mmHg 70%
    13:00 +26°C° 1.1 mm 1 mps 725 mmHg 70%
    14:00 +26°C° 1.1 mm 1 mps 725 mmHg 72%
    15:00 +26°C° 1.1 mm 1 mps 725 mmHg 74%
    16:00 +26°C° 1.1 mm 1 mps 724 mmHg 76%
    17:00 +24°C° 0.8 mm 1 mps 724 mmHg 81%
    18:00 +23°C° 0.8 mm 1 mps 724 mmHg 87%
    19:00 +20°C° 0.8 mm 0 mps 724 mmHg 92%
    20:00 +19°C° 0.8 mm 0 mps 724 mmHg 93%
    21:00 +18°C° 0.8 mm 0 mps 725 mmHg 94%
    22:00 +19°C° 0.8 mm 1 mps 725 mmHg 95%
    23:00 +19°C° 1.1 mm 1 mps 725 mmHg 95%

    1 June, Thursday

    Time Temperature Precipitation Wind Pressure Humidity
    00:00 +19°C° 1.1 mm 1 mps 725 mmHg 95%
    01:00 +19°C° 1.1 mm 1 mps 725 mmHg 95%
    02:00 +18°C° 0.9 mm 1 mps 725 mmHg 95%
    03:00 +18°C° 0.9 mm 1 mps 725 mmHg 95%
    04:00 +18°C° 0.9 mm 1 mps 725 mmHg 95%
    05:00 +19°C° 0.5 mm 1 mps 725 mmHg 93%
    06:00 +20°C° 0.5 mm 1 mps 725 mmHg 91%
    07:00 +21°C° 0.5 mm 1 mps 726 mmHg 89%
    08:00 +21°C° 0.5 mm 1 mps 726 mmHg 86%
    09:00 +22°C° 0.5 mm 1 mps 726 mmHg 84%
    10:00 +23°C° 0.5 mm 1 mps 726 mmHg 81%
    11:00 +23°C° 1 mm 1 mps 726 mmHg 81%
    12:00 +23°C° 1 mm 1 mps 726 mmHg 81%
    13:00 +23°C° 1 mm 1 mps 726 mmHg 80%
    14:00 +24°C° 1.2 mm 1 mps 725 mmHg 80%
    15:00 +24°C° 1.2 mm 1 mps 725 mmHg 80%
    16:00 +24°C° 1.2 mm 1 mps 725 mmHg 79%
    17:00 +23°C° 1.2 mm 1 mps 725 mmHg 84%
    18:00 +22°C° 1.2 mm 1 mps 725 mmHg 88%
    19:00 +21°C° 1.2 mm 1 mps 725 mmHg 92%
    20:00 +20°C° 1.3 mm 1 mps 725 mmHg 93%
    21:00 +19°C° 1.3 mm 1 mps 726 mmHg 94%
    22:00 +18°C° 1.3 mm 1 mps 726 mmHg 95%
    23:00 +18°C° 1.9 mm 1 mps 726 mmHg 96%
    Show more